Regional Weather Roundup
Issued by NWS

Home | Current Version | Previous Version | Text Only | Print | Product List | Glossary Off
Versions: 1 2 3 4 5 6 7 8 9 10 11 12 13 14 15 16 17 18 19 20 21 22 23 24 25 26 27 28

000
ASUS45 KCYS 160910
RWRWY

WYOMING REGIONAL WEATHER ROUNDUP
NATIONAL WEATHER SERVICE CHEYENNE WY
300 AM MDT MON OCT 16 2017

NOTE:  "FAIR" INDICATES FEW OR NO CLOUDS BELOW 12,000 FEET
WITH NO SIGNIFICANT WEATHER AND/OR OBSTRUCTIONS TO VISIBILITY.

WYZ001-161000-
YELLOWSTONE NATIONAL PARK

CITY           SKY/WX    TMP DP  RH WIND       PRES   REMARKS
LK YELLOWSTONE   N/A     22  21  96 CALM      30.45R
W YELLOWSTONE  NOT AVBL

$$
WYZ002>013-054>058-071-098>099-161000-
NORTHERN WYOMING

CITY           SKY/WX    TMP DP  RH WIND       PRES   REMARKS
JACKSON        FAIR      24  22  91 NE3       30.45S
CODY           FAIR      53  22  29 SW9       30.25S
GREYBULL       FAIR      31  25  78 SW6       30.24S WCI  25
WORLAND        FAIR      33  29  85 S5        30.23F WCI  29
SHERIDAN       FAIR      29  25  85 CALM      30.16F
BUFFALO        FAIR      46  17  31 W8        30.21S
GILLETTE       FAIR      42  26  53 CALM      30.19F
HULETT         FAIR      39  27  60 SW7       30.20S WCI  34
NEWCASTLE      FAIR      32  27  80 CALM      30.24F

$$
WYZ014>020-022>026-101>103-161000-
CENTRAL WYOMING

CITY           SKY/WX    TMP DP  RH WIND       PRES   REMARKS
BIG PINEY      FAIR      21  16  81 CALM      30.45S
PINEDALE       FAIR      21  19  93 W7        30.45S WCI  13
DUBOIS         FAIR      36  19  51 NW17      30.34F WCI  25
LANDER         FAIR      41  28  60 W3        30.28F
RIVERTON       FAIR      38  30  73 SW8       30.30F WCI  32
CASPER         FAIR      47  17  30 SW17      30.27F
DOUGLAS        FAIR      25  21  85 SE7       30.27F WCI  17

$$
WYZ021-027>030-104>119-161000-
SOUTHERN WYOMING

CITY           SKY/WX    TMP DP  RH WIND       PRES   REMARKS
EVANSTON       FAIR      38  17  42 S6        30.45S WCI  33
KEMMERER       FAIR      32  18  55 NW9       30.45S WCI  24
FORT BRIDGER   FAIR      38  11  33 W12       30.46S WCI  31
ROCK SPRINGS   FAIR      36  10  34 SW3       30.43S
DIXON          FAIR      29  18  64 CALM      30.47F
RAWLINS        FAIR      42  10  27 SW13      30.39F
SARATOGA       FAIR      30  18  59 S3        30.43S
LARAMIE        FAIR      34  14  43 SW7       30.40F WCI  28
CHEYENNE       FAIR      34  21  59 W9        30.34F WCI  27
TORRINGTON     FAIR      29  24  82 E5        30.26F WCI  24
PINE BLUFFS    FAIR      32  23  69 MISG      30.33F

$$




USA.gov is the U.S. government's official web portal to all federal, state and local government web resources and services.